Theta_e
317 317 319 320 319 318 318 318 318 318 316 318 318 318 318 319 319 318 318 317 316 317 317 317 317 316 315 314 314 313 312 311 311 312 314 312 311 310
317 319 319 320 320 320 320 319 319 319 319 318 318 318 319 319 319 318 318 317 317 316 315 314 314 314 314 313 312 311 310 310 310 310 310 313 312 313
317 317 318 316 318 319 319 319 319 319 318 319 318 319 319 319 319 316 317 317 315 313 311 311 310 309 309 309 309 308 308 307 307 308 308 310 310 310
316 318 318 318 319 319 320 320 320 320 319 319 320 320 318 315 314 314 311 308 308 307 306 304 303 304 304 303 304 304 304 304 304 304 304 304 306 307
318 319 319 319 319 319 318 317 315 313 312 309 309 308 306 304 303 302 301 299 299 297 297 297 297 297 297 297 297 297 297 297 298 299 300 301 302 302
318 317 314 311 312 310 309 307 306 306 304 300 298 296 294 292 292 290 291 291 292 292 292 292 292 291 291 292 292 293 293 293 294 295 296 296 296 297
310 307 302 298 297 299 299 298 297 297 294 292 291 289 288 287 287 287 287 286 288 290 288 287 287 287 287 287 288 288 289 289 290 290 291 291 291 292
301 296 295 294 293 292 292 293 293 292 290 290 287 287 285 284 284 283 283 284 286 286 283 283 284 285 283 282 283 284 286 287 288 288 288 288 289 289
294 292 290 290 290 289 289 289 287 286 286 285 284 284 284 283 282 282 281 281 281 282 281 281 282 281 279 278 279 283 282 281 281 281 281 282 283 284
290 289 288 287 287 287 286 285 284 283 283 284 283 282 281 280 279 278 278 278 278 278 278 278 277 277 276 276 278 280 278 278 278 279 280 280 281 282
285 285 285 284 284 284 284 282 281 281 282 281 280 280 278 277 276 276 275 275 275 276 275 274 275 275 274 276 277 276 276 276 277 278 279 279 279 280
282 282 281 281 282 282 281 279 279 279 279 279 278 276 275 274 273 273 272 273 273 274 274 272 273 273 273 274 274 274 274 275 274 275 276 277 279 279
282 282 281 281 279 279 278 277 276 276 275 274 273 272 272 271 271 270 270 270 271 271 271 272 272 272 272 273 272 272 272 272 272 273 274 275 276 277
282 281 280 279 277 276 275 274 274 273 272 271 271 270 270 270 270 270 269 270 269 270 270 270 271 271 271 270 270 271 271 271 272 273 274 273 273 274
279 278 277 276 274 273 273 272 271 270 269 269 269 269 269 269 269 268 269 269 269 269 269 269 269 269 269 269 270 270 271 272 272 270 271 271 272 273
276 274 273 272 272 271 270 270 269 268 268 268 268 268 268 267 267 267 268 268 267 267 268 268 268 269 269 269 270 270 270 270 270 270 270 271 272 273
274 273 272 271 270 269 269 268 268 267 267 267 267 267 266 266 266 266 267 267 267 267 267 267 268 268 268 268 269 269 269 269 269 270 270 271 271 272
272 270 269 269 269 268 268 267 267 266 266 266 266 265 265 265 265 265 265 266 266 266 266 267 267 267 267 268 268 269 269 269 269 269 270 270 271 271
270 269 269 268 268 267 267 266 266 266 265 265 265 264 264 264 264 264 264 265 265 265 266 266 266 267 267 266 267 268 268 268 269 269 269 270 270 271
268 268 268 267 267 266 266 265 265 265 265 264 264 264 263 263 263 263 263 263 264 264 265 265 266 266 266 266 267 267 267 268 269 269 270 270 270 271
267 267 267 266 265 265 265 264 264 264 264 264 263 263 263 262 262 262 262 262 263 263 264 265 265 265 266 266 266 267 267 268 269 270 270 271 271 272
266 266 265 265 265 264 264 264 264 263 263 263 263 262 262 262 261 261 261 261 261 262 263 263 264 265 265 266 266 267 267 268 268 270 271 272 272 271
265 265 265 264 264 263 263 263 263 263 263 262 262 262 262 262 262 261 261 261 261 261 262 263 264 264 264 265 266 267 268 269 270 271 273 275 274 274
Wind_Speed
25 26 28 30 27 26 25 27 17 6 6 16 24 29 32 34 35 34 39 39 36 37 36 38 39 42 44 47 50 53 52 55 56 58 56 57 58 58
31 33 29 30 32 31 29 33 32 23 10 27 25 31 32 33 34 33 34 30 31 32 33 34 35 39 41 44 45 48 49 52 55 57 60 59 58 60
31 32 31 34 32 34 36 36 31 27 18 30 30 35 33 34 28 28 24 20 20 24 27 31 33 34 36 39 40 42 44 46 49 52 55 58 60 63
33 32 37 32 34 36 35 32 31 29 25 23 24 18 6 2 6 9 13 15 17 20 23 24 26 27 28 30 32 33 35 37 39 41 43 47 52 55
31 29 28 27 28 24 20 16 11 9 7 3 0 0 3 9 14 13 14 16 17 19 18 17 18 19 21 22 23 24 24 26 27 30 35 39 43 47
20 18 15 12 14 12 10 6 5 3 2 7 4 8 9 11 10 18 19 21 21 17 15 16 19 21 23 23 23 24 25 27 27 27 30 34 34 32
10 8 7 12 13 8 9 10 8 10 11 14 15 8 10 12 16 16 13 21 19 12 24 25 26 24 22 22 23 25 25 26 27 26 27 29 32 34
18 18 18 19 20 20 21 20 18 16 17 16 15 12 12 12 14 15 16 15 7 11 22 22 21 18 19 22 22 25 23 23 23 22 24 27 31 35
20 20 20 19 19 19 21 21 24 24 22 17 18 13 10 13 14 14 13 13 12 17 24 16 16 23 27 32 30 19 22 25 27 30 30 29 28 23
25 24 23 21 17 18 18 21 22 23 18 18 19 17 16 14 13 11 14 17 18 18 20 5 18 21 24 29 19 17 26 28 32 31 29 29 30 30
27 24 23 21 18 17 20 20 19 20 19 20 17 13 17 18 17 19 22 18 11 14 18 20 18 27 24 16 13 22 31 31 30 30 29 30 29 29
31 29 26 25 20 19 20 18 20 16 13 12 12 13 15 16 18 20 20 16 17 10 16 22 21 23 11 12 29 25 26 25 30 30 30 28 26 28
30 28 24 24 23 21 20 20 17 12 14 14 14 16 17 19 21 21 19 17 16 13 20 21 19 19 16 26 18 24 24 30 31 31 30 26 29 26
29 30 26 24 24 19 20 17 14 14 16 17 18 18 18 20 19 20 19 17 17 17 18 20 20 20 20 24 24 26 27 27 26 23 23 25 31 30
32 29 26 22 21 23 22 20 19 20 19 20 17 16 16 16 16 18 17 16 18 16 17 18 21 22 20 21 25 28 31 26 14 31 25 29 29 30
26 25 23 22 22 20 20 20 19 18 18 17 16 15 15 17 17 18 18 20 20 21 18 20 21 22 24 23 25 27 26 21 31 28 29 29 27 25
26 23 22 21 21 19 18 17 16 17 17 16 15 14 15 15 17 18 17 18 17 20 24 24 23 23 22 24 25 25 25 29 29 30 30 29 27 26
26 26 24 21 18 17 18 15 16 16 15 14 16 16 18 17 19 18 17 18 19 21 23 25 28 29 26 21 18 24 29 29 33 31 28 27 29 27
29 25 21 19 17 15 14 13 13 13 12 14 16 18 21 20 20 18 18 18 19 21 23 24 24 24 13 15 29 17 30 33 32 30 27 26 29 31
23 21 18 16 14 13 11 11 10 10 12 13 16 19 23 23 21 17 18 19 21 23 23 22 23 23 22 18 31 47 31 31 30 31 31 30 31 32
17 17 16 14 12 11 9 7 8 9 11 14 17 20 24 24 22 19 18 20 22 21 22 24 27 30 31 32 25 34 40 32 30 32 33 29 25 25
15 15 13 11 9 8 6 6 7 10 12 15 19 23 23 22 22 21 21 22 21 21 24 28 30 30 29 26 27 34 39 44 42 31 28 27 23 3
12 10 9 8 7 6 5 7 8 9 12 17 23 23 22 25 25 25 25 22 21 24 24 29 30 30 27 27 30 33 37 39 36 38 35 10 17 23
Wind_Direction
206 226 236 247 250 246 245 250 240 262 260 267 260 267 265 269 273 274 271 272 274 277 285 288 286 286 285 282 284 281 268 257 255 256 252 243 248 249
221 234 243 255 260 259 260 262 258 247 266 274 269 273 272 272 276 270 266 268 279 282 293 295 295 293 291 291 289 286 281 274 268 263 263 256 253 250
234 240 247 256 259 263 263 265 259 251 253 271 271 274 273 275 272 268 266 286 292 292 290 294 292 292 292 291 290 289 289 287 280 273 267 258 260 260
239 244 250 253 260 266 263 266 264 262 253 260 269 278 262 275 283 276 298 310 303 299 299 303 305 304 303 302 301 297 291 288 284 280 278 274 268 264
238 246 252 259 261 258 259 258 255 257 259 328 122 217 350 332 327 325 322 317 320 323 320 327 325 322 320 319 317 314 314 311 307 299 288 280 274 269
238 245 248 251 251 253 255 268 283 273 28 32 58 18 15 357 5 358 347 339 345 339 339 338 332 329 329 326 324 327 322 315 311 302 294 291 287 282
189 166 120 92 87 106 103 87 77 78 62 55 58 48 25 28 12 353 351 337 341 328 334 336 339 345 346 343 342 335 328 322 313 308 303 299 293 287
145 127 111 96 88 85 83 79 76 71 62 82 60 42 22 15 6 3 358 354 341 328 343 331 337 339 339 340 344 331 324 322 322 315 309 300 298 291
131 121 109 104 103 96 84 77 72 62 64 61 70 48 17 11 11 6 3 353 336 338 339 332 336 332 330 329 327 327 335 340 334 330 327 322 318 320
113 111 110 103 99 94 85 73 71 70 58 60 66 66 54 38 34 21 5 351 345 344 351 307 335 331 329 327 332 334 336 332 331 327 326 325 319 319
100 95 96 90 90 83 83 86 81 73 74 70 67 61 48 38 25 5 13 8 351 338 5 352 337 327 322 320 309 331 330 326 326 326 321 321 320 318
90 84 79 81 80 89 92 84 74 68 69 60 49 36 21 19 17 16 13 10 356 334 346 344 331 345 321 312 329 325 329 326 326 325 323 323 322 325
101 95 93 93 86 78 80 77 73 70 58 48 32 24 17 13 10 7 5 4 351 328 328 339 330 330 309 312 320 321 320 319 318 317 315 313 318 317
105 104 97 89 82 82 78 72 64 57 52 46 39 26 15 9 2 1 356 355 345 330 336 338 335 330 320 315 313 317 319 316 315 327 326 321 319 315
105 103 100 100 93 81 67 62 61 57 51 44 33 22 13 359 353 353 351 347 343 337 333 332 329 324 318 309 307 312 317 320 306 327 317 314 309 309
106 106 105 97 87 78 69 66 62 56 49 42 31 16 7 359 355 355 347 345 338 335 338 334 331 326 318 312 309 307 311 308 313 313 312 306 303 302
122 109 93 85 79 76 71 65 60 52 47 37 28 15 4 357 354 351 347 340 337 331 330 331 331 325 317 312 307 304 306 306 308 308 308 304 303 303
104 94 90 88 85 78 72 64 53 47 43 35 28 21 7 358 348 345 345 342 335 331 327 328 331 329 325 315 302 308 307 305 305 305 304 301 300 303
98 97 97 91 85 77 71 62 52 46 39 34 25 16 3 358 351 346 341 337 332 329 326 328 329 330 325 317 316 310 308 304 303 301 299 295 293 295
99 103 102 93 86 82 73 61 54 45 38 25 15 9 4 360 351 341 338 333 329 327 325 326 325 324 318 308 307 307 309 301 301 297 297 294 288 291
102 103 100 98 92 81 69 63 53 39 25 15 8 3 359 356 350 340 333 332 329 326 321 320 319 318 312 310 304 306 310 311 304 298 297 292 291 295
111 106 101 91 77 65 65 56 37 25 16 8 0 356 358 359 353 342 338 330 325 320 315 315 321 323 320 315 306 307 311 315 315 308 294 276 270 283
103 101 97 87 63 52 53 25 27 24 7 358 351 353 352 345 348 344 338 330 319 319 322 322 324 323 318 315 310 311 313 316 319 320 323 301 248 244